Location: Helsinki
(60.1699°N, 24.9384°E)
Time: 17:44:11
(UTC+02:00)

S-56A Canister/Altair - Pass Details

Date: 03 November 2020
Orbit: 633 x 2500 km, 38.9° (Epoch: 29 November)

Event Time Altitude Azimuth Distance (km) Brightness Sun altitude
Rises 07:59:51 0° 237° (WSW) 3,534 10.7 0.3°
Reaches altitude 10° 08:04:36 10° 203° (SSW) 2,978 10.7 0.8°
Maximum altitude 08:06:29 11° 187° (S) 3,054 11.0 1.0°
Drops below altitude 10° 08:08:32 10° 172° (S) 3,315 11.5 1.2°
Sets 08:15:05 0° 143° (SE) 4,846 13.4 1.9°
